Location: Newark
(40.5981°N, 124.1572°W)
Time: 23:55:29
(UTC+00:00)

OTV 5 (USA 277) - Visible Passes

Search period start: 23 August 2019 00:00
Search period end: 02 September 2019 00:00
Orbit: 305 x 329 km, 54.5° (Epoch: 20 August)

Date Brightness Start Highest point End Pass type
(mag) Time Alt. Az. Time Alt. Az. Time Alt. Az.
23 Aug ? 04:05:53 10° S 04:07:05 17° SSE 04:07:05 17° SSE visible
23 Aug ? 12:03:49 32° SSE 12:03:49 32° SSE 12:05:26 10° SE visible
24 Aug ? 04:19:42 10° SW 04:22:22 62° SE 04:23:24 32° ENE visible
25 Aug ? 04:34:22 10° WSW 04:36:56 40° NW 04:38:56 15° NNE visible
26 Aug ? 04:49:40 10° WNW 04:51:39 18° NNW 04:53:37 10° NNE visible
27 Aug ? 03:29:03 10° SW 03:31:45 72° NW 03:34:26 10° NE visible
27 Aug ? 05:06:08 10° NNW 05:06:30 10° NNW 05:06:52 10° NNW visible
28 Aug ? 03:44:01 10° W 03:46:23 26° NW 03:48:44 10° NNE visible
29 Aug ? 03:59:41 10° WNW 04:01:10 13° NNW 04:02:37 10° N visible
